Tracking 19246 objects as of 21-Sep-2018
HD Live streaming from Space Station
objects crossing your sky now

FENGYUN 1C DEB

Track FENGYUN 1C DEB now!
10-day predictions


NORAD ID: 37600
Int'l Code: 1999-025EKU
Perigee: 725.0 km
Apogee: 1,379.3 km
Inclination: 98.9 °
Period: 106.1 minutes
Semi major axis: 7423 km
RCS: 0.0034 m2 (small)
Launch date: May 10, 1999
Source: People's Republic of China (PRC)
Launch site: Taiyaun Space Center, China (TSC)

Note: This is SATELLITE DEBRIS
aabbcc
Your satellite tracking list
Your tracking list is empty




NASA's NSSDC Master Catalog

Two Line Element Set (TLE):
1 37600U 99025EKU 18262.14301914 +.00001599 +00000-0 +12113-2 0  9997
2 37600 098.9323 229.1755 0440710 118.5299 246.0946 13.57426814524726
Source of the keplerian elements: AFSPC